Weather History for Kahului, HI

Change the Weather History Date:

Saturday, October 23, 2010

  Actual Average Record
Temperature  
Mean Temperature 77 °F 78 °F  
Max Temperature 89 °F 86 °F 93 °F (1984)
Min Temperature 64 °F 69 °F 61 °F (1975)
Degree Days  
Heating Degree Days 0 0  
Month to date heating degree days 0 0  
Since 1 July heating degree days 0 0  
Cooling Degree Days 12 13  
Month to date cooling degree days 294 308  
Year to date cooling degree days 3304 3276  
Growing Degree Days 26 (Base 50)    
Moisture  
Dew Point 64 °F    
Average Humidity 66    
Maximum Humidity 84    
Minimum Humidity 48    
Precipitation  
Precipitation 0.00 in 0.05 in 0.56 in (1978)
Month to date precipitation 0.09 0.81  
Year to date precipitation 4.36 11.89  
Snow  
Snow 0.00 in - - ()
Month to date snowfall 0.0  
Since 1 July snowfall 0.0  
Since 1 September snowfall 0.0  
Snow Depth 0.00 in    
Sea Level Pressure  
Sea Level Pressure 30.08 in    
Wind  
Wind Speed 10 mph (East)    
Max Wind Speed 23 mph    
Max Gust Speed 31 mph    
Visibility 10 miles    
Events      
T = Trace of Precipitation, MM = Missing Value Source: NWS Daily Summary

Daily Weather History Graph

Daily Weather History Graph

Search for Another Location

Airport:

Trip Planner

Search our weather history database for the weather conditions in past years. The results will help you decide how hot, cold, wet, or windy it might be!

Date:

Astronomy

Oct. 23, 2010 Rise Set
Actual Time 6:24 AM HST 5:55 PM HST
Civil Twilight 6:01 AM HST 6:18 PM HST
Nautical Twilight 5:35 AM HST 6:44 PM HST
Astronomical Twilight 5:09 AM HST 7:09 PM HST
Moon 6:23 PM HST (10/23) 7:00 AM HST (10/23)
Length of Visible Light 12h 16m
Length of Day
11h 31m
Full, 99% of the Moon is Illuminated
Oct 23
Full
Oct 30
Last Quarter
Nov 5
New
Nov 13
First Quarter
Nov 21
Full

Hourly Weather History & Observations

Time (HST) Temp. Heat Index Dew Point Humidity Pressure Visibility Wind Dir Wind Speed Gust Speed Precip Events Conditions
12:54 AM 66.9 °F - 61.0 °F 81% 30.13 in 10.0 mi South 4.6 mph - N/A   Clear
1:54 AM 66.9 °F - 61.0 °F 81% 30.10 in 10.0 mi Calm Calm - N/A   Clear
2:54 AM 66.9 °F - 60.1 °F 79% 30.09 in 10.0 mi SE 3.5 mph - N/A   Clear
3:54 AM 64.9 °F - 59.0 °F 81% 30.08 in 10.0 mi SSE 4.6 mph - N/A   Clear
4:54 AM 64.9 °F - 59.0 °F 81% 30.09 in 10.0 mi SE 6.9 mph - N/A   Clear
5:54 AM 64.9 °F - 57.9 °F 78% 30.09 in 10.0 mi SSE 5.8 mph - N/A   Clear
6:54 AM 66.0 °F - 57.9 °F 75% 30.10 in 10.0 mi Calm Calm - N/A   Clear
7:54 AM 72.0 °F - 61.0 °F 68% 30.11 in 10.0 mi SSE 4.6 mph - N/A   Clear
8:54 AM 77.0 °F - 64.4 °F 65% 30.12 in 10.0 mi Calm Calm - N/A   Partly Cloudy
9:54 AM 84.0 °F 84.5 °F 62.1 °F 47% 30.10 in 10.0 mi East 8.1 mph - N/A   Partly Cloudy
10:54 AM 84.0 °F 85.6 °F 64.4 °F 52% 30.09 in 10.0 mi ENE 5.8 mph - N/A   Partly Cloudy
11:54 AM 87.1 °F 90.6 °F 68.0 °F 53% 30.06 in 10.0 mi ENE 16.1 mph - N/A   Partly Cloudy
12:54 PM 86.0 °F 90.4 °F 69.8 °F 58% 30.04 in 10.0 mi ENE 16.1 mph 26.5 mph N/A   Partly Cloudy
1:54 PM 86.0 °F 89.4 °F 68.0 °F 55% 30.02 in 10.0 mi NE 16.1 mph 23.0 mph N/A   Partly Cloudy
2:54 PM 84.2 °F 87.3 °F 68.0 °F 58% 30.01 in 10.0 mi ENE 16.1 mph 25.3 mph N/A   Scattered Clouds
3:54 PM 82.4 °F 85.4 °F 68.0 °F 62% 30.01 in 10.0 mi ENE 23.0 mph 28.8 mph N/A   Partly Cloudy
4:54 PM 80.6 °F 82.7 °F 66.2 °F 61% 30.01 in 10.0 mi East 20.7 mph 28.8 mph N/A   Scattered Clouds
5:54 PM 80.6 °F 82.3 °F 64.4 °F 58% 30.04 in 10.0 mi ENE 16.1 mph 25.3 mph N/A   Partly Cloudy
6:54 PM 75.2 °F - 66.6 °F 74% 30.07 in 10.0 mi ENE 12.7 mph 25.3 mph N/A   Clear
7:54 PM 77.7 °F - 65.7 °F 66% 30.10 in 10.0 mi NE 12.7 mph - N/A   Clear
8:54 PM 75.2 °F - 66.2 °F 73% 30.12 in 10.0 mi NE 13.8 mph - N/A   Clear
9:54 PM 75.2 °F - 66.2 °F 73% 30.12 in 10.0 mi NE 18.4 mph 23.0 mph N/A   Clear
10:54 PM 75.2 °F - 64.4 °F 69% 30.12 in 10.0 mi ENE 6.9 mph - N/A   Clear
11:54 PM 70.0 °F - 61.0 °F 73% 30.12 in 10.0 mi South 3.5 mph - N/A   Clear